Current Version              Previous Version:    01  02  03  04  05  06  07  08  09  10  11  12  13  14  15  16  17  18  19  20  21  22  23  24  25  26  27  28  29  30  
   31  32  33  34  35  36  37  38  39  40  41  42  43  44  45  46  47  48  49  50  51  52  53  54  55  56  57  58  59  60  

[Printable]
863
ASUS44 KLUB 291710
RWRTX
WEST TEXAS WEATHER ROUNDUP
NATIONAL WEATHER SERVICE LUBBOCK TX
1200 PM CDT TUE JUL 29 2014

NOTE: "FAIR" INDICATES FEW OR NO CLOUDS BELOW 12,000 FEET WITH NO
SIGNIFICANT WEATHER AND/OR OBSTRUCTIONS TO VISIBILITY.

TXZ004-006>008-010-012-014-016-OKZ002-291800-
TEXAS PANHANDLE/OKLAHOMA PANHANDLE

CITY           SKY/WX    TMP DP  RH WIND       PRES   REMARKS
AMARILLO       CLOUDY    74  61  63 S14       30.27R
BORGER         CLOUDY    73  60  63 SE5       30.25F
CANADIAN       LGT RAIN  65  61  88 SE7       30.25S
DALHART        CLOUDY    72  63  73 S12       30.27R
DUMAS          CLOUDY    73  60  64 S13       30.26S
GUYMON         CLOUDY    69  62  78 SE13      30.22S
HEREFORD       CLOUDY    71  64  80 S9        30.28F
PAMPA          RAIN      69  61  77 S10       30.27F
PERRYTON       CLOUDY    63  61  93 S14       30.24F
$$

TXZ026-029-035-045-048-291800-
SOUTHERN PANHANDLE/SOUTH PLAINS/ROLLING PLAINS

CITY           SKY/WX    TMP DP  RH WIND       PRES   REMARKS
CHILDRESS      PTSUNNY   80  64  58 S9        30.22F
SEMINOLE       SUNNY     79  59  50 NE8       30.26S
LUBBOCK        LGT RAIN  70  63  78 CALM      30.26S
PLAINVIEW      CLOUDY    75  64  69 SW5       30.26S
SNYDER         SUNNY     82  64  55 NE3       30.20F
$$

TXZ052-054-060>062-072-078-127-140-154-169-291800-
PERMIAN BASIN/CONCHO VALLEY/BIG COUNTRY/EDWARDS PLATEAU

CITY           SKY/WX    TMP DP  RH WIND       PRES   REMARKS
ABILENE        SUNNY     86  65  49 VRB6      30.18S
BIG SPRING     MOSUNNY   87  60  41 S6        30.21S
BRADY          SUNNY     88  68  51 CALM      30.16F HAZE
BROWNWOOD      MOSUNNY   86  66  51 E8        30.16F
JUNCTION       SUNNY     91  64  40 CALM      30.15F
MIDLAND        SUNNY     89  62  40 VRB7      30.18F
ODESSA         SUNNY     88  60  38 S9        30.19F
SAN ANGELO     SUNNY     91  65  41 SE7       30.15F
SONORA         SUNNY     90  59  35 VRB6G13   30.21F
SWEETWATER     MOSUNNY   87  64  46 SW3       30.21F
WINK           MOSUNNY   90  59  35 E8        30.15F
$$

TXZ055-058-074-075-080-082-291800-
FAR WEST/SOUTHWEST MOUNTAINS/TRANS PECOS

CITY           SKY/WX    TMP DP  RH WIND       PRES   REMARKS
ALPINE         SUNNY     85  46  25 SE3       30.31S
DRYDEN           N/A     96  62  32 SE17      30.12F HX  97
EL PASO        LGT RAIN  70  66  87 N10       30.23S
FORT STOCKTON  MOSUNNY   90  54  29 SE9       30.17F
GUADALUPE PASS PTSUNNY   80  58  46 E10       30.35S
MARFA          SUNNY     81  54  39 S6        30.31S
PECOS          MOSUNNY   90  56  31 NE5       30.14F
PRESIDIO       FAIR      91  53  27 S3        30.13F
$$

TXZ014-016-019-021>030-083-291800
TEXAS TECH WEST TEXAS MESONET/TEXAS PANHANDLE/NORTHERN SOUTH PLAINS

CITY           SKY/WX    TMP DP  RH WIND       PRES   REMARKS
ABERNATHY 5ENE   N/A     72  63  73 SW6       30.28S
AMARILLO 9NNE    N/A     75  64  67 S10       30.25S
AMARILLO 7SSE    N/A     74  62  65 SW12      30.27F
AMHERST 1NE      N/A     71  63  77 W17       30.28F
BOOTLEG 11WNW    N/A     64  62  94 SW9       30.31S
CANADIAN 6E      N/A     63  60  89 SE7       30.25R
CAPROCK CYN SP   N/A     77  63  60 S7        30.23F
CHILDRESS 2NNE   N/A     78  63  60 E2        30.22S
CLARENDON 2WSW   N/A     73  62  68 S9        30.26R
DIMMITT 2NE      N/A     70  63  78 S10       30.28F
FLOYDADA 2NNE    N/A     74  62  65 S2        30.26S
FRIONA 2NE     LGT RAIN  67  64  90 SW10      30.30S
GOODLETT 3W      N/A     81  60  48 SE10      30.20S
HART 3N          N/A     71  63  75 SW10      30.28F
HEREFORD 2NW     N/A     68  62  80 SW8       30.28S
MCLEAN 1E        N/A     70  64  82 SE8       30.25F
MEMPHIS 1NE      N/A     75  65  70 E6        30.23S
MULESHOE 2SSW    N/A     66  63  91 SW14      30.30S
OLTON 6S         N/A     72  62  69 W15       30.27F
PALO DURO SP     N/A     76  61  61 S7        30.28S
PAMPA 2E         N/A     70  63  79 SE10      30.27S
PLAINVIEW 1S     N/A     73  63  69 S3        30.26S
SILVERTON 7ESE   N/A     75  62  63 S9        30.26S
TULIA 2ENE       N/A     74  63  69 S10       30.28R
TURKEY 2WSW      N/A     78  63  60 S7        30.22F
UMBARGER 3NNE    N/A     71  61  71 S13       30.28F
$$

TXZ033>036-039>041-045>048-291800
TEXAS TECH WEST TEXAS MESONET/SOUTH PLAINS

CITY           SKY/WX    TMP DP  RH WIND       PRES   REMARKS
AIKEN 3WSW       N/A     74  63  68 SW9       30.28S
ANDREWS 2NE      N/A     86  59  40 NE6       30.22F
ANTON 6SSW       N/A     69  65  87 W2        30.27R
BROWNFIELD 2S    N/A     74  61  64 N8        30.26S
DENVR CTY 7WNW   N/A     70  61  71 NE6       30.28R
GAIL 2ESE        N/A     85  62  46 E2        30.19F
LAMESA 2SE       N/A     81  61  51 N7        30.23F
LEVELLAND 4S     N/A     69  65  86 W1        30.28R
LUBBOCK 3WNW     N/A     69  63  80 E2        30.27S
MORTON 1ENE      N/A     66  64  93 W10       30.29F
ODONNELL 1N      N/A     77  60  55 E5        30.24F
PLAINS 3N        N/A     68  65  92 N7        30.28S
RALLS 1SE        N/A     77  63  61 S3        30.26S
REESE CENTER     N/A     69  64  86 CALM      30.27R
SEAGRAVES 1SW    N/A     79  61  55 NE7       30.25S
SEMINOLE 2NNE    N/A     79  59  50 E7        30.25S
SLATON 2NE       N/A     78  62  58 S3        30.25S
SNYDER 3E        N/A     86  64  47 W2        30.20F
SUNDOWN 8SW    LGT RAIN  68  65  93 N12       30.27F
TAHOKA 3NNE      N/A     79  61  53 NE5       30.24S
WOLFFORTH 6SSW   N/A     70  64  82 NE3       30.27S
$$

TXZ031-032-036>038-042>044-291800-
TEXAS TECH WEST TEXAS MESONET/ROLLING PLAINS

CITY           SKY/WX    TMP DP  RH WIND       PRES   REMARKS
ASPERMONT 3NE    N/A     83  62  48 SE6       30.18F
FLUVANNA 3WNW    N/A     81  62  52 SE3       30.21F
GRAHAM 5SSW      N/A     79  60  53 N5        30.23F
GUTHRIE 10WSW    N/A     82  60  47 SE8       30.19F
HASKELL 1NW      N/A     83  58  42 E8        30.17F
JAYTON 1SSE      N/A     83  61  46 SE6       30.19F
KNOX CITY 3NW    N/A     87  53  30 E12       30.18S
LK A HENRY 1NW   N/A     82  63  51 E7        30.20F
NORTHFIELD 1S    N/A     82  62  50 S8        30.21S
ODELL 4ENE       N/A     70  64  80 SE8       30.22R
PADUCAH 10SW     N/A     82  60  46 SE6       30.20F
POST 1NE         N/A     80  61  51 SE2       30.22F
RRING SPRGS 3N   N/A     77  64  63 SE7       30.23F
SEYMOUR 3NW      N/A     84  51  32 E16       30.19S
SPUR 1W          N/A     80  61  52 E6        30.21S
WEINERT 2NNE     N/A     87  57  36 E14       30.18S
WHITE RVR 6NE    N/A     79  63  57 S1        30.23S
$$

TXZ052-054-060>062-072-078-127-140-154-169-291800-
TEXAS TECH WEST TEXAS MESONET/PERMIAN BASIN/
CONCHO VALLEY/BIG COUNTRY/EDWARDS PLATEAU

CITY           SKY/WX    TMP DP  RH WIND       PRES   REMARKS
COYANOSA 2N      N/A     93  56  28 E8        30.14F
MERTZON 3NNE     N/A     91  65  42 S9        30.16F
SAN ANGELO 7NW   N/A     90  64  42 SE3       30.16F
STRLNG CT 4WSW   N/A     91  63  39 SE9       30.17F
ST LAWRNCE 5SW   N/A     88  60  39 SE9       30.18F
SWEETWATR 11SW   N/A     87  66  50 S8        30.20F
WALL 1E          N/A     89  66  46 N2        30.16F
$$

TXZ055-058-074-075-080-082-291800-
TEXAS TECH WEST TEXAS MESONET/FAR WEST/SOUTHWEST MOUNTAINS/TRANS PECOS

CITY           SKY/WX    TMP DP  RH WIND       PRES   REMARKS
PRSMN GAP BBNP   N/A     91  57  31 SE6       30.15F
GUADLPE MTN NP   N/A     76  57  51 E5        30.36S
$$